Regional Weather Roundup
Issued by NWS

Home | Current Version | Previous Version | Text Only | Print | Product List | Glossary On
Versions: 1 2 3 4 5 6 7 8 9 10 11 12 13 14 15 16 17 18 19 20 21 22 23 24 25 26 27 28 29 30 31 32 33 34 35 36 37 38 39 40 41 42 43 44 45 46 47 48 49 50
000
ASUS43 KDTX 060310
RWRMI
MICHIGAN HOURLY REGIONAL WEATHER ROUNDUP
NATIONAL WEATHER SERVICE DETROIT/PONTIAC MI
1000 PM EST SUN FEB 05 2023

NOTE: "FAIR" INDICATES FEW OR NO CLOUDS BELOW 12,000 FEET WITH NO
SIGNIFICANT WEATHER AND/OR OBSTRUCTION TO VISIBILITY.

MIZ047>049-052>055-059>063-066>070-074>076-081>083-060400-
SOUTHEAST LOWER MICHIGAN

CITY           SKY/WX    TMP DP  RH WIND       PRES   REMARKS
ADRIAN         CLOUDY    35  27  72 NW10G21   30.00R WCI  27
ALMA           CLOUDY    32  25  74 NW9       30.03R WCI  24
ANN ARBOR      LGT SNOW  33  26  75 W13G20    29.98R WCI  24
BAD AXE        FLURRIES  29  28  94 N9        29.98R WCI  21
CARO           CLOUDY    32  28  83 NW7       29.99R WCI  26
DETROIT CITY   LGT RAIN  37  32  82 NW6       29.97R WCI  32
DETROIT        FLURRIES  35  30  82 NW12G21   29.98R WCI  27
FLINT          CLOUDY    32  28  85 N13       30.00R WCI  22
GROSSE ILE     CLOUDY    36  34  92 NW12G18   29.97R WCI  28
HILLSDALE      CLOUDY    31  28  90 NW13G21   30.00R WCI  21
HOWELL         CLOUDY    33  31  94 NW9       29.99R WCI  25

CITY           SKY/WX    TMP DP  RH WIND       PRES   REMARKS
JACKSON        CLOUDY    31  24  75 W15G25    30.01R WCI  20
LAMBERTVILLE   CLOUDY    37  31  80 W5        29.99R WCI  33
LANSING        CLOUDY    30  25  81 NW13      30.03R WCI  20
LAPEER         FLURRIES  32  31  95 N7        29.97R WCI  26
MASON          CLOUDY    31  26  80 NW10G17   30.01R WCI  22
MONROE         CLOUDY    37  31  79 NW9       29.98R WCI  30
MT. CLEMENS    LGT RAIN  34  31  89 W8        29.94R WCI  28
PONTIAC        FLURRIES  32  28  86 NW9       29.96R WCI  24
PORT HOPE        N/A     32  27  81 NW10G22   29.97R WCI  24
PORT HURON     MIX PCPN  34  32  93 W6        29.95R WCI  29
TRI CITIES     CLOUDY    31  24  75 NW16      30.02R WCI  20
MIDLAND        CLOUDY    31  23  74 NW10G18   30.02R WCI  22
TROY           CLOUDY    35  31  85 W8G16     29.99R WCI  28
SAGINAW HB     CLOUDY    32  25  75 NW14G23   30.01R WCI  22
$$
MIZ043>046-050>051-056>058-064>065-071>073-077>080-060400-
SOUTHWEST LOWER MICHIGAN

CITY           SKY/WX    TMP DP  RH WIND       PRES   REMARKS
BATTLE CREEK   CLOUDY    32  25  75 NW16G26   30.05R WCI  21
BENTON HARBOR  PTCLDY    32  24  72 NW6       30.10R WCI  26
BIG RAPIDS     CLOUDY    28  22  78 N9        30.05R WCI  19
COLDWATER      CLOUDY    31  26  81 NW15G22   30.04R WCI  20
FREMONT        CLOUDY    30  20  68 N16G23    30.07R WCI  18
HOLLAND        CLOUDY    33  25  72 N10       30.09R WCI  25
GRAND RAPIDS   CLOUDY    31  24  75 NW13      30.06R WCI  21
IONIA          CLOUDY    32  26  77 NW9G16    30.04R WCI  24
KALAMAZOO      CLOUDY    32  26  78 NW9       30.06R WCI  24
LUDINGTON      CLOUDY    30  19  61 N8        30.10R WCI  23
MARSHALL       CLOUDY    31  25  80 NW9       30.03R WCI  23
MOUNT PLEASANT CLOUDY    29  22  73 NW9       30.02R WCI  21
MUSKEGON       CLOUDY    33  23  66 N9        30.09R WCI  25
SOUTH HAVEN    CLOUDY    33  26  74 NW9G17    30.10R WCI  26
$$
MIZ016>042-060400-
NORTHERN LOWER MICHIGAN

CITY           SKY/WX    TMP DP  RH WIND       PRES   REMARKS
ALPENA         CLOUDY    23  18  81 NW10G24   30.03R WCI  12
BEAVER ISLAND  CLOUDY    21  15  75 N7        30.09R WCI  13
BELLAIRE       CLOUDY    24  17  76 NW7       30.10R WCI  16
CADILLAC       CLOUDY    23  19  84 NW8       30.02R WCI  14
CHARLEVOIX     CLOUDY    22  17  80 NW10G17   30.09R WCI  12
FRANKFORT      CLOUDY    26  19  74 NW8       30.11R WCI  18
GAYLORD        CLOUDY    20  14  77 VRB7G21   30.02R WCI  11
GRAYLING       FLURRIES  21  18  86 N10       30.03R WCI  10
HARBOR SPRINGS CLOUDY    21  15  77 NW6       30.08R WCI  14
HOUGHTON LAKE  CLOUDY    23  17  78 NW15G25   30.02R WCI  10
MANISTEE       CLOUDY    27  20  75 N8        30.11R WCI  19
OSCODA         CLOUDY    29  22  75 NW10      30.00R WCI  20
PELLSTON       CLOUDY    21  14  74 NW14      30.07R WCI   8
ROGERS CITY    CLOUDY    23  18  82 W14G20    30.04R WCI  11
TRAVERSE CITY  CLOUDY    26  17  68 N10       30.09R WCI  16
$$
MIZ007>008-015-060400-
EASTERN UPPER MICHIGAN

CITY           SKY/WX    TMP DP  RH WIND       PRES   REMARKS
KINROSS        FLURRIES  19  15  84 NW12      30.03R WCI   7
MACKINAC ISLAN CLOUDY    20  15  79 NW12G20   30.05R WCI   8
NEWBERRY       FLURRIES  19  14  82 N3        30.04S
S. S. MARIE    CLOUDY    19  13  77 NW12G20   30.06R WCI   7
$$
MIZ004>006-011>014-085-060400-
CENTRAL UPPER MICHIGAN

CITY           SKY/WX    TMP DP  RH WIND       PRES   REMARKS
MANISTIQUE     FLURRIES  20  15  81 NW6       30.09R WCI  12
ESCANABA       CLOUDY    21  14  74 MISG      30.13
MENOMINEE      CLOUDY    25  17  72 N10       30.13R WCI  15
SAWYER-GWINN   FLURRIES  16  10  79 NW9       30.08R WCI   4
MUNISING         N/A     22  15  75 N15       30.10R WCI   9
$$
MIZ001>003-009>011-084-060400-
WESTERN UPPER MICHIGAN

CITY           SKY/WX    TMP DP  RH WIND       PRES   REMARKS
IRON MOUNTAIN  CLOUDY    20  13  74 NW7       30.08R WCI  11
HOUGHTON       FLURRIES  16  12  84 CALM      30.09R
IRONWOOD       CLOUDY    17  14  88 SW3       30.10R
$$

ABBREVIATIONS USED IN REMARKS
   TC - TEMPERATURE IN CELSIUS
  WCI - WIND CHILL INDEX
   HX - HEAT INDEX
  VSB - VISIBILITY




USA.gov is the U.S. government's official web portal to all federal, state and local government web resources and services.